Airfield :
LOGIN :

Register | Disclaimer

   EN    FR    IT 

 










Legend :    VFR   Marginal VFR   IFR   Intensive IFR   Very Intensive IFR
Visi :
Ceiling :
>= 8 km
>= 3000ft
5 to 8 km
1000 to 3000 ft
1500m to 5 km
500 to 1000 ft
800 to 1500m
200 to 500 ft
< 800m
< 200 ft
Symbols :   Thunderstorms  Fog  Heavy snow  Heavy precipitations  Wind > 20 kt
SIGMETs :     Misc.  Thunderstorms  Icing  Turbulence  Mountain Waves  Volcanic Ashes







- Airport Elevation : 26 ft


ETNT - Wittmundhaven AB

CURRENT METAR :
  • 111820Z 36003KT 9999 BKN030 04/02 Q1023 BLU

EXPIRED METARs :
  • 111800Z 03004KT 9999 BKN030 04/02 Q1023 BLU FCST CANCEL
  • 111720Z 34003KT 9999 BKN030 03/01 Q1022 BLU BLU BECMG WHT
  • 111620Z 32003KT 9999 FEW050 03/00 Q1022 BLU+BLU+

TAF TAF ETNT
Valid from the 11 at 18:00 until the 12 at 03:00 UTC


111700Z 1118/1203 03005KT 9999 NSW BKN020
TEMPO 1121/1203 01005KT 5000 BR BKN010 BY ETGL
No reported NOTAMs for that airfield.



MET'MAP, your aeronautical weather chart ! - Copyright ORBIFLY December 2007 - Disclaimer

ORBIFLY MET'MAP TEAM :

Programming & Development : Alexandra Zaïnal
Concept & Development : Baudouin d'Aumeries
Co-Development & Prog : Marc-Olivier Méhu
Technical & hardware support : Manuel Goepfert

Contact : metmap@orbifly.com




SOURCES & CREDITS :

   NOAA